This is the latest recevied weather packets stored in our database for station/object F1ZTH-10. If no packets are shown the sender has not sent any weather packets the latest 10 day(s).
| Time | Temp. | Humidity | Pressure | Rain* | Wind** | Luminosity | Snow |
|---|---|---|---|---|---|---|---|
| 1787918781 | 23.89° C | 95% | 976 hPa | - | - | - | - |
| 1787917872 | 22.78° C | 96% | 976 hPa | - | - | - | - |
| 1787916972 | 22.22° C | 97% | 976 hPa | - | - | - | - |
| 1787916072 | 21.67° C | 98% | 976 hPa | - | - | - | - |
| 1787915172 | 21.67° C | 97% | 976 hPa | - | - | - | - |
| 1787914272 | 21.11° C | 97% | 976 hPa | - | - | - | - |
| 1787913372 | 21.11° C | 96% | 976 hPa | - | - | - | - |
| 1787912472 | 20.56° C | 95% | 977 hPa | - | - | - | - |
| 1787911572 | 21.11° C | 96% | 976 hPa | - | - | - | - |
| 1787910672 | 20.56° C | 96% | 977 hPa | - | - | - | - |
| 1787907972 | 20.56° C | 95% | 975 hPa | - | - | - | - |
| 1787907072 | 20.56° C | 96% | 975 hPa | - | - | - | - |
| 1787906172 | 20.56° C | 95% | 975 hPa | - | - | - | - |
| 1787905272 | 20.56° C | 93% | 975 hPa | - | - | - | - |
| 1787904372 | 20° C | 89% | 975 hPa | - | - | - | - |
| 1787903472 | 20° C | 80% | 975 hPa | - | - | - | - |
| 1787902572 | 20° C | 71% | 975 hPa | - | - | - | - |
| 1787901672 | 20.56° C | 69% | 974 hPa | - | - | - | - |
| 1787900772 | 21.67° C | 66% | 974 hPa | - | - | - | - |
| 1787899872 | 23.33° C | 63% | 974 hPa | - | - | - | - |
| 1787898972 | 23.33° C | 64% | 974 hPa | - | - | - | - |
| 1787898072 | 24.44° C | 65% | 973 hPa | - | - | - | - |
| 1787897172 | 25° C | 68% | 973 hPa | - | - | - | - |
| 1787896272 | 25.56° C | 70% | 972 hPa | - | - | - | - |
| 1787895372 | 25.56° C | 68% | 972 hPa | - | - | - | - |
* Rain since midnight (hover to see other rain measurements)
** Current wind speed in m/s (hover to see current wind gust speed)